Tracking 27419 objects as of 10-Jun-2023
HD Live streaming from Space Station
objects crossing your sky now

STARLINK-5079

Track STARLINK-5079 now!
10-day predictions
STARLINK-5079 is classified as:


NORAD ID: 53999
Int'l Code: 2022-125AM
Perigee: 546.1 km
Apogee: 547.6 km
Inclination: 53.2 °
Period: 95.4 minutes
Semi major axis: 6917 km
RCS: Unknown
Launch date: October 5, 2022
Source: United States (US)
Launch site: AIR FORCE WESTERN TEST RANGE (AFWTR)
Your satellite tracking list
Your tracking list is empty




NASA's NSSDC Master Catalog

Two Line Element Set (TLE):
1 53999U 22125AM  23161.08605049  .00001165  00000-0  91278-4 0  9996
2 53999  53.2181  39.3872 0001086  79.7228 280.3886 15.08841022 38028
Source of the keplerian elements: AFSPC